Tracking 20712 objects as of 28-May-2020
HD Live streaming from Space Station
objects crossing your sky now

SL-8 DEB *

Track SL-8 DEB * now!
10-day predictions


NORAD ID: 14802
Int'l Code: 1977-059C
Perigee: 685.3 km
Apogee: 699.5 km
Inclination: 74.1 °
Period: 98.5 minutes
Semi major axis: 7063 km
RCS: 0.0066 m2 (small)
Launch date: July 1, 1977
Source: Commonwealth of Independent States (former USSR) (CIS)
Launch site: PLESETSK MISSILE AND SPACE COMPLEX (PKMTR)

Note: This is SATELLITE DEBRIS
aabbcc
Your satellite tracking list
Your tracking list is empty




NASA's NSSDC Master Catalog

Two Line Element Set (TLE):
1 14802U 77059C   20149.46065887 +.00000270 +00000-0 +59205-4 0  9997
2 14802 074.0541 156.6190 0010062 136.0566 024.8907 14.62467005042733
Source of the keplerian elements: AFSPC